Tracking 35275 objects as of 8-Sep-2026
HD Live streaming from Space Station
objects crossing your sky now

BREEZE-M R/B

Track BREEZE-M R/B now!


NORAD ID: 38099
Int'l Code: 2012-011B
Launch date: March 25, 2012
Source: Commonwealth of Independent States (former USSR) (CIS)
Launch site: TYURATAM MISSILE AND SPACE COMPLEX (TTMTR)

Note: This is a ROCKET BODY
Your satellite tracking list
Your tracking list is empty




NASA's NSSDC Master Catalog

Two Line Element Set (TLE):
1 38099U 12011B   26251.05990352 -.00000469  00000-0  00000-0 0  9993
2 38099  25.3148 154.6839 7629889  26.1020 357.4990  1.11834336 58909
Source of the keplerian elements: AFSPC